Location: Aufkirchen
(47.9603°N, 11.3653°E)
Time: 06:27:57
(UTC+01:00)

Transit 4A - Pass Details

Date: 26 November 2020
Orbit: 864 x 980 km, 66.8° (Epoch: 25 January)

Event Time Altitude Azimuth Distance (km) Brightness Sun altitude
Rises 15:35:26 0° 325° (NW) 3,691 11.0 6.1°
Reaches altitude 10° 15:38:26 10° 336° (NNW) 2,737 10.2 5.7°
Maximum altitude 15:43:55 29° 35° (NE) 1,709 8.9 5.0°
Drops below altitude 10° 15:49:18 10° 94° (E) 2,687 9.9 4.3°
Sets 15:52:11 0° 106° (ESE) 3,612 10.6 3.9°
